Flag for Canada Weather past 2 weeks in Yarmouth County, Nova Scotia, Canada

Now
50 °F

Passing clouds.


Feels Like: 44 °F
Forecast: N/A
Wind: 18 mph from West

Location: Yarmouth

Current Time: May 6, 2015 at 7:37:39 PM

Latest Report: May 6, 2015 at 7:00 PM


Visibility: 15 mi

Pressure: 30.12 "Hg

Humidity: 62%

Dew point: 37 °F

Location of Yarmouth CountyLocation

Historic Weather in Yarmouth County — Graph

°F

Yarmouth County temperature yesterday

Maximum temperature yesterday: 59 °F (at 1:00 PM)
Minimum temperature yesterday: 46 °F (at 2:00 AM)
Average temperature yesterday: 52 °F

Past Weeks' High & Low Weather Summary

 TemperatureHumidityPressure
High59 °F (May 5, 1:00 PM)100% (Apr 21, 5:00 PM)30.25 "Hg (Apr 21, 5:00 PM)
Low32 °F (Apr 26, 2:00 AM)42% (May 6, 11:00 AM)29.35 "Hg (Apr 27, 4:00 PM)
Average43 °F85%29.78 "Hg
* Reported Apr 21 5:00 PM — May 6 5:00 PM, Yarmouth County, Weather by CustomWeather, © 2015

Note: Actual official high and low records may vary slightly from our data, if they occured in-between our weather recording intervals... More about our weather records

Advertising

Yarmouth County weather history for previous 24 hours

 ConditionsComfort  
Time TempWeatherWind HumidityBarometerVisibility
5:00 PM
Wed, May 6
57 °FPassing clouds.15 mph48%30.14 "Hg15 mi
4:00 PM57 °FPassing clouds.21 mph48%30.16 "Hg15 mi
3:00 PM55 °FPassing clouds.17 mph51%30.19 "Hg15 mi
2:00 PM55 °FSunny.15 mph55%30.20 "Hg15 mi
1:00 PM57 °FSunny.14 mph48%30.22 "Hg15 mi
12:00 PM57 °FPassing clouds.15 mph44%30.23 "Hg15 mi
11:00 AM59 °FPassing clouds.15 mph42%30.24 "Hg15 mi
10:00 AM54 °FPassing clouds.10 mph54%30.24 "Hg15 mi
9:00 AM52 °FPassing clouds.9 mph62%30.25 "Hg15 mi
8:00 AM52 °FSunny.5 mph58%30.24 "Hg15 mi
7:00 AM46 °FPassing clouds.6 mph62%30.22 "Hg15 mi
6:00 AM46 °FPassing clouds.3 mph62%30.21 "Hg15 mi
5:00 AM45 °FPassing clouds.7 mph66%30.21 "Hg15 mi
4:00 AM45 °FPassing clouds.10 mph76%30.20 "Hg15 mi
3:00 AM46 °FPassing clouds.12 mph71%30.19 "Hg15 mi
2:00 AM46 °FPassing clouds.9 mph71%30.19 "Hg15 mi
1:00 AM48 °FPassing clouds.14 mph66%30.18 "Hg15 mi
12:00 AM46 °FPassing clouds.9 mph66%30.17 "Hg15 mi
11:00 PM
Tue, May 5
48 °FPassing clouds.14 mph62%30.16 "Hg15 mi
10:00 PM50 °FPassing clouds.12 mph58%30.14 "Hg15 mi
9:00 PM52 °FPartly sunny.13 mph50%30.13 "Hg15 mi
8:00 PM50 °FPartly sunny.12 mph62%30.12 "Hg15 mi
7:00 PM52 °FPartly sunny.13 mph62%30.12 "Hg15 mi
Weather by CustomWeather, © 2015

See weather overviewHow to use our weather pages